Location: Cerezo de Arriba
(41.2389°N, 3.5585°W)
Time: 04:53:50
(UTC+00:00)

Meteor 1-11 Rocket - Pass Details

Date: 19 May 2025
Orbit: 830 x 914 km, 81.2° (Epoch: 23 June)

Event Time Altitude Azimuth Distance (km) Brightness Sun altitude
Rises 22:44:52 0° 350° (N) 3,382 8.1 -25.6°
Reaches altitude 10° 22:47:17 10° 352° (N) 2,444 7.1 -25.8°
Maximum altitude 22:52:49 84° 81° (E) 843 3.5 -26.2°
Enters shadow 22:53:12 77° 144° (SE) 858 3.5 -26.2°
